Total_Precipitation_Accumulation
0.51 0.72 1.03 1.37 1.71 2.07 2.54 2.73 2.68 2.24 1.78 1.58 1.39 1.30 1.20 1.16 1.21 1.22 1.18 1.13 1.03 1.01 1.15 1.05 0.96 0.95 0.97 0.93 1.08 1.19 1.18 0.97 1.18 1.32 0.87 0.59 0.46 0.37 0.26 0.22 0.23 0.23 0.25
0.69 1.06 1.50 1.72 1.68 1.93 2.42 2.46 2.01 1.56 1.27 1.12 1.00 0.90 0.88 0.87 0.85 0.83 0.81 0.80 0.81 0.86 0.93 0.90 0.81 0.77 0.78 0.78 0.85 0.98 0.98 0.87 1.14 1.27 1.11 0.77 0.56 0.43 0.27 0.24 0.23 0.23 0.30
0.84 1.17 1.51 1.61 1.50 1.71 1.75 1.46 1.16 0.90 0.71 0.61 0.57 0.60 0.57 0.57 0.51 0.46 0.46 0.52 0.58 0.59 0.59 0.59 0.64 0.68 0.68 0.69 0.75 0.90 1.02 0.89 0.92 1.15 1.25 0.97 0.65 0.56 0.43 0.41 0.42 0.41 0.46
0.53 0.75 0.95 1.07 1.14 1.15 1.00 0.82 0.71 0.59 0.53 0.53 0.47 0.53 0.47 0.43 0.38 0.34 0.34 0.39 0.42 0.42 0.41 0.43 0.53 0.60 0.66 0.70 0.65 0.70 0.85 0.90 0.83 0.92 1.03 1.04 1.02 0.94 0.66 0.49 0.45 0.49 0.50
0.30 0.41 0.46 0.53 0.60 0.62 0.57 0.47 0.54 0.60 0.56 0.52 0.46 0.42 0.36 0.31 0.28 0.31 0.34 0.39 0.41 0.41 0.38 0.37 0.39 0.49 0.57 0.64 0.66 0.67 0.72 0.79 0.77 0.79 0.84 0.91 0.99 0.97 0.88 0.64 0.47 0.47 0.47
0.26 0.30 0.28 0.25 0.25 0.26 0.26 0.26 0.33 0.42 0.42 0.42 0.40 0.37 0.34 0.32 0.29 0.28 0.30 0.32 0.36 0.38 0.38 0.38 0.40 0.42 0.43 0.46 0.53 0.59 0.64 0.69 0.71 0.71 0.78 0.87 0.85 0.85 0.94 0.81 0.64 0.58 0.53
0.18 0.21 0.22 0.18 0.16 0.14 0.13 0.12 0.14 0.23 0.27 0.29 0.32 0.32 0.32 0.31 0.29 0.25 0.25 0.26 0.26 0.31 0.35 0.37 0.41 0.47 0.47 0.48 0.49 0.55 0.61 0.68 0.72 0.71 0.75 0.84 0.88 0.88 0.96 0.92 0.76 0.70 0.74
0.09 0.11 0.11 0.10 0.09 0.08 0.07 0.06 0.06 0.08 0.09 0.13 0.17 0.19 0.22 0.23 0.25 0.31 0.29 0.25 0.24 0.27 0.33 0.39 0.42 0.45 0.50 0.53 0.59 0.63 0.68 0.73 0.75 0.74 0.84 0.90 0.88 0.96 1.02 1.07 1.08 0.96 0.96
0.05 0.05 0.05 0.05 0.04 0.04 0.04 0.04 0.04 0.04 0.05 0.05 0.08 0.10 0.14 0.18 0.24 0.30 0.28 0.24 0.24 0.23 0.24 0.31 0.42 0.43 0.46 0.53 0.62 0.67 0.72 0.77 0.82 0.86 0.95 1.01 1.01 1.01 1.01 1.13 1.23 1.24 1.19
0.03 0.03 0.03 0.03 0.03 0.02 0.02 0.02 0.03 0.03 0.03 0.03 0.03 0.05 0.11 0.19 0.26 0.30 0.26 0.23 0.21 0.20 0.20 0.24 0.32 0.35 0.38 0.47 0.59 0.67 0.74 0.85 0.93 0.93 0.96 1.04 1.09 1.13 1.14 1.15 1.22 1.33 1.40
0.01 0.01 0.01 0.01 0.01 0.01 0.01 0.02 0.02 0.02 0.02 0.02 0.03 0.07 0.16 0.21 0.27 0.42 0.40 0.25 0.19 0.17 0.16 0.17 0.18 0.20 0.23 0.31 0.47 0.68 0.79 0.90 0.95 0.97 1.02 1.05 1.12 1.14 1.08 1.14 1.19 1.28 1.39
0.00 0.00 0.00 0.01 0.01 0.01 0.01 0.01 0.02 0.02 0.02 0.02 0.02 0.05 0.15 0.20 0.23 0.30 0.33 0.26 0.21 0.18 0.15 0.14 0.13 0.12 0.15 0.23 0.39 0.56 0.72 0.86 0.98 1.01 1.01 0.92 0.92 1.00 1.06 1.10 1.15 1.18 1.28
0.00 0.00 0.00 0.00 0.01 0.01 0.01 0.01 0.01 0.01 0.01 0.02 0.03 0.05 0.07 0.08 0.10 0.12 0.16 0.20 0.22 0.24 0.20 0.18 0.17 0.21 0.26 0.34 0.43 0.49 0.61 0.76 0.85 0.88 0.86 0.83 0.85 0.86 0.95 1.00 1.04 1.06 1.08
0.00 0.00 0.00 0.00 0.00 0.00 0.00 0.01 0.01 0.01 0.01 0.02 0.03 0.04 0.05 0.04 0.05 0.07 0.12 0.17 0.21 0.22 0.21 0.20 0.25 0.31 0.38 0.41 0.41 0.43 0.50 0.56 0.62 0.67 0.66 0.65 0.70 0.75 0.79 0.82 0.85 0.92 0.97
0.01 0.01 0.01 0.01 0.01 0.01 0.01 0.01 0.01 0.02 0.02 0.04 0.09 0.09 0.07 0.06 0.06 0.08 0.10 0.12 0.13 0.13 0.17 0.22 0.27 0.33 0.36 0.34 0.37 0.41 0.38 0.44 0.44 0.42 0.44 0.47 0.51 0.58 0.66 0.69 0.72 0.78 0.83
0.02 0.02 0.02 0.02 0.01 0.01 0.02 0.01 0.02 0.02 0.04 0.08 0.14 0.17 0.14 0.08 0.06 0.06 0.08 0.10 0.11 0.13 0.18 0.22 0.24 0.26 0.24 0.25 0.26 0.27 0.26 0.29 0.34 0.34 0.32 0.30 0.37 0.44 0.50 0.56 0.61 0.69 0.74
0.03 0.02 0.01 0.01 0.01 0.01 0.01 0.02 0.02 0.03 0.10 0.13 0.11 0.18 0.20 0.10 0.06 0.07 0.09 0.12 0.14 0.17 0.22 0.24 0.25 0.27 0.28 0.18 0.13 0.11 0.16 0.22 0.29 0.34 0.35 0.26 0.21 0.28 0.35 0.42 0.46 0.51 0.58
0.01 0.00 0.00 0.00 0.00 0.00 0.01 0.02 0.05 0.05 0.13 0.16 0.13 0.19 0.21 0.13 0.13 0.15 0.17 0.19 0.23 0.26 0.31 0.31 0.31 0.35 0.32 0.21 0.12 0.09 0.11 0.19 0.26 0.31 0.33 0.30 0.24 0.25 0.29 0.36 0.38 0.38 0.39
0.00 0.00 0.00 0.00 0.00 0.01 0.01 0.03 0.08 0.11 0.12 0.15 0.14 0.21 0.28 0.24 0.24 0.26 0.29 0.33 0.37 0.38 0.39 0.40 0.40 0.42 0.41 0.29 0.17 0.13 0.17 0.25 0.29 0.31 0.32 0.31 0.26 0.21 0.22 0.29 0.35 0.38 0.37
0.00 0.00 0.00 0.00 0.01 0.02 0.04 0.05 0.08 0.13 0.15 0.16 0.18 0.24 0.37 0.42 0.40 0.39 0.42 0.44 0.51 0.54 0.54 0.51 0.49 0.50 0.53 0.44 0.24 0.19 0.26 0.35 0.38 0.43 0.41 0.36 0.33 0.26 0.19 0.24 0.29 0.31 0.34
0.00 0.01 0.01 0.01 0.03 0.05 0.08 0.12 0.14 0.16 0.18 0.20 0.24 0.30 0.44 0.58 0.56 0.56 0.56 0.58 0.60 0.67 0.72 0.72 0.69 0.66 0.63 0.56 0.31 0.22 0.31 0.41 0.47 0.47 0.48 0.42 0.35 0.27 0.21 0.21 0.26 0.27 0.31
0.01 0.02 0.03 0.05 0.06 0.10 0.17 0.22 0.23 0.23 0.26 0.28 0.32 0.37 0.51 0.55 0.59 0.67 0.72 0.80 0.83 0.84 0.86 0.89 0.85 0.83 0.77 0.62 0.42 0.25 0.28 0.42 0.59 0.60 0.56 0.54 0.47 0.36 0.28 0.22 0.22 0.24 0.29
0.02 0.03 0.05 0.08 0.12 0.17 0.27 0.36 0.37 0.38 0.39 0.38 0.39 0.44 0.52 0.65 0.80 0.85 0.82 0.88 0.96 1.00 1.03 1.02 0.96 0.94 0.98 0.82 0.50 0.34 0.31 0.39 0.58 0.73 0.77 0.67 0.54 0.46 0.37 0.32 0.27 0.25 0.26
0.03 0.04 0.07 0.12 0.17 0.25 0.37 0.47 0.49 0.51 0.50 0.45 0.43 0.48 0.57 0.67 0.81 0.96 0.99 1.04 1.07 1.07 1.12 1.13 1.04 1.03 1.11 1.04 0.73 0.51 0.42 0.43 0.53 0.66 0.71 0.68 0.64 0.58 0.50 0.41 0.34 0.27 0.26
0.04 0.06 0.11 0.16 0.20 0.30 0.45 0.53 0.57 0.60 0.58 0.52 0.47 0.48 0.55 0.65 0.74 0.87 0.98 1.01 1.03 0.97 0.99 1.05 1.00 1.00 1.10 1.04 0.81 0.69 0.64 0.59 0.60 0.69 0.77 0.78 0.75 0.65 0.56 0.48 0.41 0.35 0.34
0.07 0.11 0.15 0.21 0.25 0.31 0.42 0.52 0.65 0.77 0.79 0.70 0.60 0.54 0.54 0.62 0.69 0.79 0.82 0.74 0.73 0.71 0.70 0.74 0.70 0.72 0.89 0.91 0.72 0.60 0.62 0.62 0.59 0.66 0.75 0.77 0.78 0.70 0.58 0.51 0.45 0.42 0.37